Beaumont / Port Arthur, TX

4:52 AM CDT on April 21, 2018 (GMT -0500)
Beaumont Municipal

Weather History for KBMT - April, 2014

Change the Weather History Date:

Sunday, April 20, 2014

  Actual Average (KBPT) Record (KBPT)
Temperature  
Mean Temperature 67 °F -  
Max Temperature 80 °F 79 °F 92 °F (1987)
Min Temperature 54 °F 61 °F 40 °F (2013)
Cooling Degree Days 2    
Growing Degree Days 17 (Base 50)    
Moisture  
Dew Point 57 °F    
Average Humidity 77    
Maximum Humidity 100    
Minimum Humidity 41    
Precipitation  
Precipitation 0.00 in - - ()
Sea Level Pressure  
Sea Level Pressure 30.14 in    
Wind  
Wind Speed 4 mph (SSE)    
Max Wind Speed 12 mph    
Max Gust Speed 16 mph    
Visibility 7 miles    
Events Fog    
Averages and records for this station are not official NWS values.
T = Trace of Precipitation, MM = Missing Value Source: NWS Daily Summary

Daily Weather History Graph

Daily Weather History Graph

Search for Another Location

Airport or City:

Astronomy

Apr. 20, 2014 Rise Set
Actual Time 6:44 AM CDT 7:47 PM CDT
Civil Twilight 6:19 AM CDT 8:12 PM CDT
Nautical Twilight 5:50 AM CDT 8:41 PM CDT
Astronomical Twilight 5:20 AM CDT 9:11 PM CDT
Moon 12:19 AM CDT (4/20) 11:14 AM CDT (4/20)
Length of Visible Light 13h 52m
Length of Day
13h 02m
Waning Gibbous, 68% of the Moon is Illuminated
Apr 20
Waning Gibbous
Apr 22
Last Quarter
Apr 29
New
May 6
First Quarter
May 14
Full

Hourly Weather History & Observations

Time (CDT) Temp. Heat Index Dew Point Humidity Pressure Visibility Wind Dir Wind Speed Gust Speed Precip Events Conditions
12:15 AM 59.4 °F - 59.2 °F 99% 30.15 in 7.0 mi Calm Calm - N/A   Clear
12:35 AM 59.9 °F - 59.5 °F 99% 30.15 in 7.0 mi WSW 3.5 mph - N/A   Clear
12:55 AM 60.4 °F - 60.1 °F 99% 30.15 in 7.0 mi WSW 3.5 mph - N/A   Clear
1:15 AM 60.8 °F - 60.3 °F 98% 30.16 in 7.0 mi WSW 3.5 mph - N/A   Clear
1:35 AM 60.8 °F - 60.6 °F 99% 30.16 in 7.0 mi Calm Calm - N/A   Clear
1:55 AM 61.0 °F - 60.8 °F 99% 30.15 in 7.0 mi Calm Calm - N/A   Clear
2:15 AM 60.1 °F - 59.9 °F 99% 30.15 in 5.0 mi Calm Calm - N/A   Clear
2:35 AM 59.9 °F - 59.9 °F 100% 30.15 in 1.8 mi Calm Calm - N/A   Mist
2:55 AM 58.5 °F - 58.5 °F 100% 30.15 in 1.0 mi West 8.1 mph - N/A   Mist
3:15 AM 57.6 °F - 57.6 °F 100% 30.14 in 0.2 mi Calm Calm - N/A Fog Fog
3:35 AM 55.9 °F - 55.9 °F 100% 30.14 in 0.2 mi Calm Calm - N/A Fog Fog
3:55 AM 55.4 °F - 55.4 °F 100% 30.14 in 0.2 mi Calm Calm - N/A Fog Fog
4:15 AM 55.8 °F - 55.8 °F 100% 30.13 in 0.8 mi Calm Calm - N/A   Overcast
4:35 AM 54.7 °F - 54.7 °F 100% 30.13 in 0.2 mi Calm Calm - N/A Fog Fog
4:55 AM 54.1 °F - 54.1 °F 100% 30.13 in 0.2 mi Calm Calm - N/A Fog Fog
5:15 AM 54.5 °F - 54.5 °F 100% 30.13 in 0.2 mi NW 4.6 mph - N/A Fog Fog
5:35 AM 55.0 °F - 55.0 °F 100% 30.14 in 0.2 mi North 3.5 mph - N/A Fog Fog
5:55 AM 57.0 °F - 57.0 °F 100% 30.14 in 0.2 mi NNE 4.6 mph - N/A Fog Fog
6:15 AM 57.2 °F - 57.2 °F 100% 30.14 in 0.2 mi North 4.6 mph - N/A Fog Fog
6:35 AM 57.2 °F - 57.2 °F 100% 30.15 in 0.5 mi North 4.6 mph - N/A Fog Fog
6:55 AM 57.2 °F - 57.2 °F 100% 30.16 in 0.2 mi North 4.6 mph - N/A Fog Fog
7:15 AM 57.4 °F - 57.4 °F 100% 30.17 in 0.2 mi North 3.5 mph - N/A Fog Fog
7:35 AM 58.1 °F - 58.1 °F 100% 30.17 in 0.2 mi NNE 3.5 mph - N/A Fog Fog
7:55 AM 58.3 °F - 58.3 °F 100% 30.18 in 0.2 mi North 4.6 mph - N/A Fog Fog
8:15 AM 59.0 °F - 59.0 °F 100% 30.18 in 0.2 mi NNE 4.6 mph - N/A Fog Fog
8:35 AM 59.9 °F - 59.9 °F 100% 30.18 in 0.2 mi NE 4.6 mph - N/A Fog Fog
8:55 AM 60.6 °F - 60.6 °F 100% 30.19 in 0.2 mi Calm Calm - N/A Fog Fog
9:15 AM 61.9 °F - 61.9 °F 100% 30.19 in 0.2 mi NNE 5.8 mph - N/A Fog Fog
9:35 AM 62.6 °F - 62.6 °F 100% 30.20 in 1.2 mi NE 4.6 mph - N/A   Overcast
9:55 AM 62.8 °F - 62.6 °F 99% 30.20 in 3.0 mi NNE 5.8 mph - N/A   Overcast
10:15 AM 65.3 °F - 63.1 °F 93% 30.20 in 7.0 mi North 3.5 mph - N/A   Scattered Clouds
10:35 AM 68.0 °F - 63.1 °F 84% 30.21 in 10.0 mi North 3.5 mph - N/A   Clear
10:55 AM 70.0 °F - 61.0 °F 73% 30.20 in 10.0 mi North 3.5 mph - N/A   Clear
11:15 AM 72.3 °F - 59.2 °F 63% 30.20 in 10.0 mi Calm Calm - N/A   Clear
11:35 AM 73.6 °F - 58.8 °F 60% 30.20 in 10.0 mi SE 3.5 mph - N/A   Clear
11:55 AM 75.9 °F - 57.4 °F 52% 30.19 in 10.0 mi SE 3.5 mph - N/A   Clear
12:15 PM 76.6 °F - 57.4 °F 51% 30.18 in 10.0 mi ESE 8.1 mph - N/A   Clear
12:35 PM 77.5 °F - 56.8 °F 49% 30.18 in 10.0 mi SE 8.1 mph - N/A   Clear
12:55 PM 77.9 °F - 57.0 °F 48% 30.17 in 10.0 mi SSE 6.9 mph - N/A   Scattered Clouds
1:15 PM 78.3 °F - 57.4 °F 49% 30.16 in 10.0 mi ESE 8.1 mph - N/A   Scattered Clouds
1:35 PM 78.8 °F - 57.9 °F 49% 30.15 in 10.0 mi ESE 10.4 mph 16.1 mph N/A   Clear
1:55 PM 79.2 °F - 56.3 °F 45% 30.15 in 10.0 mi SE 9.2 mph - N/A   Clear
2:15 PM 79.9 °F - 56.7 °F 45% 30.14 in 10.0 mi SE 11.5 mph - N/A   Clear
2:35 PM 80.1 °F 80.5 °F 57.4 °F 46% 30.13 in 10.0 mi South 6.9 mph - N/A   Clear
2:55 PM 80.1 °F 80.4 °F 57.2 °F 45% 30.13 in 10.0 mi South 9.2 mph - N/A   Scattered Clouds
3:15 PM 80.4 °F 80.5 °F 55.9 °F 43% 30.12 in 10.0 mi SSE 10.4 mph - N/A   Scattered Clouds
3:35 PM 80.4 °F 80.4 °F 55.4 °F 42% 30.12 in 10.0 mi SSE 8.1 mph - N/A   Clear
3:55 PM 80.6 °F 80.4 °F 54.9 °F 41% 30.11 in 10.0 mi SSE 6.9 mph - N/A   Clear
4:15 PM 79.3 °F - 54.1 °F 42% 30.11 in 10.0 mi SSE 8.1 mph - N/A   Clear
4:35 PM 79.5 °F - 54.7 °F 42% 30.10 in 10.0 mi South 9.2 mph - N/A   Clear
4:55 PM 78.4 °F - 54.0 °F 43% 30.09 in 10.0 mi SE 10.4 mph - N/A   Clear
5:15 PM 78.3 °F - 53.8 °F 43% 30.09 in 10.0 mi SSW 9.2 mph - N/A   Clear
5:35 PM 77.9 °F - 53.8 °F 43% 30.09 in 10.0 mi South 4.6 mph - N/A   Clear
5:55 PM 77.2 °F - 54.3 °F 45% 30.09 in 10.0 mi South 6.9 mph - N/A   Clear
6:15 PM 76.5 °F - 54.7 °F 47% 30.09 in 10.0 mi South 8.1 mph - N/A   Clear
6:35 PM 75.4 °F - 55.0 °F 49% 30.08 in 10.0 mi South 6.9 mph - N/A   Clear
6:55 PM 73.9 °F - 54.7 °F 51% 30.08 in 10.0 mi South 6.9 mph - N/A   Clear
7:15 PM 72.5 °F - 54.5 °F 53% 30.08 in 10.0 mi South 4.6 mph - N/A   Clear
7:35 PM 70.0 °F - 55.0 °F 59% 30.08 in 10.0 mi South 4.6 mph - N/A   Clear
7:55 PM 68.0 °F - 55.0 °F 63% 30.09 in 10.0 mi South 4.6 mph - N/A   Clear
8:15 PM 66.7 °F - 55.6 °F 67% 30.09 in 10.0 mi Calm Calm - N/A   Clear
8:35 PM 65.3 °F - 55.6 °F 71% 30.10 in 10.0 mi South 4.6 mph - N/A   Clear
8:55 PM 64.0 °F - 55.8 °F 74% 30.10 in 10.0 mi South 4.6 mph - N/A   Clear
9:15 PM 64.0 °F - 55.6 °F 74% 30.10 in 10.0 mi South 3.5 mph - N/A   Clear
9:35 PM 62.6 °F - 55.9 °F 79% 30.11 in 10.0 mi Calm Calm - N/A   Clear
9:55 PM 62.6 °F - 55.6 °F 78% 30.11 in 10.0 mi SE 3.5 mph - N/A   Clear
10:15 PM 60.3 °F - 55.8 °F 85% 30.12 in 10.0 mi South 6.9 mph - N/A   Clear
10:35 PM 60.1 °F - 55.9 °F 86% 30.12 in 10.0 mi SSW 4.6 mph - N/A   Clear
10:55 PM 59.4 °F - 55.8 °F 88% 30.12 in 10.0 mi SSW 8.1 mph - N/A   Clear
11:15 PM 58.1 °F - 55.6 °F 91% 30.12 in 10.0 mi South 4.6 mph - N/A   Clear
11:35 PM 57.7 °F - 55.9 °F 94% 30.12 in 10.0 mi South 6.9 mph - N/A   Clear
11:55 PM 57.2 °F - 56.1 °F 96% 30.12 in 10.0 mi South 4.6 mph - N/A   Clear